Weather History for KHZE - October, 2013

Change the Weather History Date:

Friday, October 4, 2013

  Actual Average (KN60) Record (KN60)
Temperature  
Mean Temperature 40 °F -  
Max Temperature 44 °F 60 °F 83 °F (2011)
Min Temperature 35 °F 34 °F 17 °F (2004)
Degree Days  
Heating Degree Days 26    
Moisture  
Dew Point 34 °F    
Average Humidity 83    
Maximum Humidity 93    
Minimum Humidity 75    
Precipitation  
Precipitation 0.29 in - - ()
Sea Level Pressure  
Sea Level Pressure 30.26 in    
Wind  
Wind Speed 13 mph (NNE)    
Max Wind Speed 22 mph    
Max Gust Speed 31 mph    
Visibility 9 miles    
Events Rain , Snow    
Averages and records for this station are not official NWS values.
T = Trace of Precipitation, MM = Missing Value Source: NWS Daily Summary

Daily Weather History Graph

Daily Weather History Graph

Search for Another Location

Airport or City:

Trip Planner

Search our weather history database for the weather conditions in past years. The results will help you decide how hot, cold, wet, or windy it might be!

Date:

Astronomy

Oct. 04, 2013 Rise Set
Actual Time 7:49 AM CDT 7:19 PM CDT
Civil Twilight 7:19 AM CDT 7:49 PM CDT
Nautical Twilight 6:43 AM CDT 8:25 PM CDT
Astronomical Twilight 6:07 AM CDT 9:01 PM CDT
Moon 7:28 AM CDT (10/4) 7:00 PM CDT (10/4)
Length of Visible Light 12h 30m
Length of Day
11h 29m
Waning Crescent, 0% of the Moon is Illuminated
Oct 4
Waning Crescent
Oct 4
New
Oct 11
First Quarter
Oct 18
Full
Oct 26
Last Quarter

Hourly Weather History & Observations

Time (CDT) Temp. Windchill Dew Point Humidity Pressure Visibility Wind Dir Wind Speed Gust Speed Precip Events Conditions
12:15 AM 44.6 °F 39.7 °F 37.4 °F 76% 30.20 in 10.0 mi NE 9.2 mph - N/A   Clear
12:35 AM 44.6 °F 39.7 °F 37.4 °F 76% 30.20 in 10.0 mi NE 9.2 mph - N/A   Scattered Clouds
12:55 AM 44.6 °F 38.4 °F 37.4 °F 76% 30.20 in 10.0 mi NE 12.7 mph 17.3 mph N/A   Mostly Cloudy
1:15 AM 44.6 °F 38.1 °F 37.4 °F 76% 30.21 in 10.0 mi NE 13.8 mph 21.9 mph N/A   Overcast
1:35 AM 42.8 °F 35.4 °F 39.2 °F 87% 30.21 in 10.0 mi NE 15.0 mph 23.0 mph N/A   Overcast
1:55 AM 42.8 °F 35.1 °F 39.2 °F 87% 30.22 in 10.0 mi NE 16.1 mph 20.7 mph N/A   Overcast
2:15 AM 42.8 °F 36.6 °F 37.4 °F 81% 30.23 in 10.0 mi NE 11.5 mph - N/A   Overcast
2:35 AM 42.8 °F 36.2 °F 37.4 °F 81% 30.24 in 10.0 mi NE 12.7 mph 20.7 mph N/A   Overcast
2:55 AM 41.0 °F 33.9 °F 37.4 °F 87% 30.25 in 10.0 mi NE 12.7 mph 23.0 mph N/A   Overcast
3:15 AM 41.0 °F 32.8 °F 37.4 °F 87% 30.26 in 10.0 mi NNE 16.1 mph 24.2 mph N/A   Overcast
3:35 AM 41.0 °F 33.9 °F 35.6 °F 81% 30.27 in 10.0 mi NE 12.7 mph 18.4 mph N/A   Overcast
3:55 AM 41.0 °F 35.8 °F 35.6 °F 81% 30.27 in 10.0 mi NE 8.1 mph - N/A   Overcast
4:15 AM 41.0 °F 34.7 °F 35.6 °F 81% 30.26 in 10.0 mi NE 10.4 mph 17.3 mph N/A   Overcast
4:35 AM 41.0 °F 34.3 °F 35.6 °F 81% 30.28 in 10.0 mi ENE 11.5 mph - N/A   Overcast
4:55 AM 41.0 °F 35.2 °F 35.6 °F 81% 30.28 in 10.0 mi ENE 9.2 mph - N/A   Overcast
5:15 AM 41.0 °F 35.8 °F 35.6 °F 81% 30.29 in 10.0 mi ENE 8.1 mph - N/A   Overcast
5:35 AM 41.0 °F 34.3 °F 37.4 °F 87% 30.29 in 10.0 mi NE 11.5 mph 17.3 mph N/A   Overcast
5:55 AM 39.2 °F 33.0 °F 37.4 °F 93% 30.30 in 7.0 mi ENE 9.2 mph 18.4 mph N/A Rain Light Rain
6:15 AM 39.2 °F 32.0 °F 37.4 °F 93% 30.30 in 5.0 mi NE 11.5 mph 18.4 mph 0.01 in Rain Light Rain
6:35 AM 39.2 °F 32.5 °F 37.4 °F 93% 30.29 in 5.0 mi NE 10.4 mph 19.6 mph 0.03 in Rain Light Rain
6:55 AM 39.2 °F 30.2 °F 35.6 °F 87% 30.29 in 5.0 mi NE 17.3 mph 23.0 mph 0.05 in Rain Light Rain
7:35 AM 37.4 °F - 35.6 °F 93% 30.28 in 10.0 mi North - - N/A Rain Light Rain
7:55 AM 37.4 °F 29.3 °F 35.6 °F 93% 30.28 in 10.0 mi NE 12.7 mph 21.9 mph 0.01 in Rain Light Rain
8:15 AM 39.2 °F 31.6 °F 35.6 °F 87% 30.28 in 10.0 mi NE 12.7 mph 20.7 mph N/A   Mostly Cloudy
8:35 AM 39.2 °F 31.6 °F 35.6 °F 87% 30.28 in 10.0 mi NE 12.7 mph 21.9 mph N/A   Overcast
8:55 AM 39.2 °F 32.0 °F 35.6 °F 87% 30.29 in 10.0 mi NE 11.5 mph 21.9 mph N/A   Overcast
9:15 AM 39.2 °F 31.6 °F 35.6 °F 87% 30.30 in 10.0 mi NE 12.7 mph 21.9 mph N/A   Overcast
9:35 AM 39.2 °F 31.2 °F 35.6 °F 87% 30.30 in 10.0 mi NE 13.8 mph 23.0 mph N/A   Overcast
9:55 AM 39.2 °F 30.8 °F 33.8 °F 81% 30.30 in 10.0 mi NE 15.0 mph 25.3 mph N/A   Overcast
10:15 AM 39.2 °F 31.2 °F 33.8 °F 81% 30.31 in 10.0 mi NE 13.8 mph 21.9 mph N/A   Overcast
10:35 AM 39.2 °F 30.8 °F 33.8 °F 81% 30.31 in 10.0 mi NE 15.0 mph 23.0 mph N/A   Overcast
10:55 AM 39.2 °F 30.5 °F 33.8 °F 81% 30.32 in 10.0 mi NNE 16.1 mph 23.0 mph N/A Rain Light Rain
11:15 AM 37.4 °F 28.5 °F 32.0 °F 81% 30.32 in 10.0 mi NNE 15.0 mph 21.9 mph N/A Rain Light Rain
11:35 AM 37.4 °F 30.3 °F 32.0 °F 81% 30.32 in 10.0 mi NNE 10.4 mph 21.9 mph N/A   Overcast
11:55 AM 37.4 °F 29.8 °F 32.0 °F 81% 30.33 in 10.0 mi NNE 11.5 mph 18.4 mph N/A   Overcast
12:15 PM 37.4 °F 29.3 °F 32.0 °F 81% 30.32 in 10.0 mi NNE 12.7 mph - N/A   Overcast
12:35 PM 37.4 °F 28.2 °F 32.0 °F 81% 30.31 in 10.0 mi NNE 16.1 mph 23.0 mph N/A   Overcast
12:55 PM 37.4 °F 27.5 °F 32.0 °F 81% 30.31 in 10.0 mi NNE 18.4 mph 25.3 mph N/A   Overcast
1:15 PM 37.4 °F 28.9 °F 32.0 °F 81% 30.32 in 10.0 mi NNE 13.8 mph 21.9 mph N/A   Overcast
1:35 PM 37.4 °F 28.5 °F 32.0 °F 81% 30.32 in 10.0 mi North 15.0 mph 19.6 mph N/A   Overcast
1:55 PM 37.4 °F 28.9 °F 32.0 °F 81% 30.32 in 10.0 mi North 13.8 mph 19.6 mph N/A   Overcast
2:15 PM 37.4 °F 28.2 °F 32.0 °F 81% 30.31 in 10.0 mi NNE 16.1 mph 23.0 mph N/A Rain Light Rain
2:35 PM 37.4 °F 28.2 °F 32.0 °F 81% 30.30 in 8.0 mi North 16.1 mph 25.3 mph N/A   Scattered Clouds
2:55 PM 35.6 °F 24.8 °F 32.0 °F 87% 30.29 in 5.0 mi NNE 19.6 mph 24.2 mph 0.01 in   Partly Cloudy
3:15 PM 35.6 °F 25.9 °F 32.0 °F 87% 30.29 in 5.0 mi NNE 16.1 mph 21.9 mph 0.01 in   Partly Cloudy
3:35 PM 35.6 °F 26.6 °F 32.0 °F 87% 30.28 in 10.0 mi North 13.8 mph 19.6 mph 0.01 in Rain Light Rain
3:55 PM 37.4 °F 27.8 °F 32.0 °F 81% 30.29 in 8.0 mi North 17.3 mph 24.2 mph 0.02 in Rain Light Rain
4:15 PM 35.6 °F 25.5 °F 32.0 °F 87% 30.28 in 3.0 mi North 17.3 mph 25.3 mph 0.02 in   Clear
4:35 PM 35.6 °F 25.5 °F 32.0 °F 87% 30.28 in 3.0 mi North 17.3 mph 26.5 mph 0.07 in Snow Light Snow
4:55 PM 35.6 °F 24.5 °F 32.0 °F 87% 30.28 in 3.0 mi North 20.7 mph 26.5 mph 0.11 in   Clear
5:15 PM 35.6 °F 25.9 °F 32.0 °F 87% 30.27 in 5.0 mi NNE 16.1 mph 23.0 mph 0.01 in   Clear
5:35 PM 37.4 °F 28.5 °F 32.0 °F 81% 30.27 in 8.0 mi North 15.0 mph 27.6 mph 0.02 in   Clear
5:55 PM 35.6 °F 25.5 °F 32.0 °F 87% 30.27 in 3.0 mi North 17.3 mph 31.1 mph 0.05 in   Clear
6:15 PM 35.6 °F 24.2 °F 32.0 °F 87% 30.26 in 5.0 mi North 21.9 mph 27.6 mph 0.02 in   Clear
6:35 PM 35.6 °F 24.2 °F 32.0 °F 87% 30.25 in 6.0 mi NNE 21.9 mph 29.9 mph 0.03 in   Clear
6:55 PM 37.4 °F 26.9 °F 32.0 °F 81% 30.24 in 10.0 mi NNE 20.7 mph 31.1 mph 0.04 in Rain Light Rain
7:15 PM 37.4 °F 26.9 °F 32.0 °F 81% 30.23 in 10.0 mi NNE 20.7 mph 29.9 mph N/A Rain Light Rain
7:35 PM 37.4 °F - 32.0 °F 81% 30.23 in 10.0 mi North - - N/A Rain Light Rain
7:55 PM 37.4 °F 28.2 °F 32.0 °F 81% 30.22 in 10.0 mi NNE 16.1 mph 26.5 mph N/A   Overcast
8:15 PM 37.4 °F 27.2 °F 32.0 °F 81% 30.22 in 10.0 mi NNE 19.6 mph 24.2 mph N/A   Overcast
8:35 PM 37.4 °F 27.5 °F 32.0 °F 81% 30.22 in 10.0 mi NNE 18.4 mph 26.5 mph N/A   Overcast
8:55 PM 37.4 °F 28.5 °F 32.0 °F 81% 30.22 in 10.0 mi NNE 15.0 mph 26.5 mph N/A   Overcast
9:15 PM 37.4 °F 27.2 °F 32.0 °F 81% 30.21 in 10.0 mi NNE 19.6 mph 28.8 mph N/A   Overcast
9:35 PM 39.2 °F 31.2 °F 32.0 °F 75% 30.22 in 10.0 mi NNE 13.8 mph 27.6 mph N/A Rain Light Rain
9:55 PM 37.4 °F 27.2 °F 32.0 °F 81% 30.20 in 10.0 mi NNE 19.6 mph 27.6 mph N/A Rain Light Rain
10:15 PM 37.4 °F 29.3 °F 32.0 °F 81% 30.20 in 10.0 mi NNE 12.7 mph 25.3 mph N/A   Mostly Cloudy
10:35 PM 37.4 °F 28.2 °F 32.0 °F 81% 30.20 in 10.0 mi NNE 16.1 mph 25.3 mph N/A   Overcast
10:55 PM 37.4 °F 27.2 °F 32.0 °F 81% 30.19 in 10.0 mi NNE 19.6 mph 25.3 mph N/A   Overcast
11:15 PM 37.4 °F 27.2 °F 32.0 °F 81% 30.20 in 10.0 mi NE 19.6 mph 27.6 mph N/A   Overcast
11:35 PM 37.4 °F 28.2 °F 32.0 °F 81% 30.20 in 10.0 mi NNE 16.1 mph 28.8 mph N/A   Overcast
11:55 PM 37.4 °F 28.9 °F 32.0 °F 81% 30.19 in 10.0 mi NNE 13.8 mph 28.8 mph N/A   Overcast